This is the latest recevied weather packets stored in our database for station/object KF4PPJ. If no packets are shown the sender has not sent any weather packets the latest 10 day(s).
| Time | Temp. | Humidity | Pressure | Rain* | Wind** | Luminosity | Snow |
|---|---|---|---|---|---|---|---|
| 1777948891 | 19.44° C | 66% | 1012.5 hPa | 0 mm | - | 22 W/m² | - |
| 1777948588 | 20° C | 64% | 1012.5 hPa | 0 mm | - | 25 W/m² | - |
| 1777948285 | 20° C | 62% | 1012.3 hPa | 0 mm | - | 28 W/m² | - |
| 1777947983 | 20.56° C | 61% | 1012.5 hPa | 0 mm | - | 40 W/m² | - |
| 1777947679 | 20.56° C | 61% | 1012.5 hPa | 0 mm | - | 40 W/m² | - |
| 1777947376 | 20.56° C | 60% | 1012.2 hPa | 0 mm | - | 34 W/m² | - |
| 1777947073 | 21.67° C | 58% | 1012.3 hPa | 0 mm | - | 37 W/m² | - |
| 1777946768 | 21.67° C | 57% | 1012.3 hPa | 0 mm | - | 37 W/m² | - |
| 1777946465 | 22.22° C | 56% | 1012.3 hPa | 0 mm | - | 72 W/m² | - |
| 1777946162 | 22.22° C | 57% | 1012.2 hPa | 0 mm | - | 40 W/m² | - |
| 1777945859 | 22.22° C | 56% | 1012.2 hPa | 0 mm | - | 43 W/m² | - |
| 1777945555 | 22.78° C | 57% | 1012.1 hPa | 0 mm | - | 44 W/m² | - |
| 1777945252 | 22.78° C | 56% | 1012.2 hPa | 0 mm | - | 48 W/m² | - |
| 1777944949 | 22.78° C | 57% | 1012.4 hPa | 0 mm | - | 49 W/m² | - |
| 1777944647 | 22.78° C | 56% | 1012.5 hPa | 0 mm | - | 49 W/m² | - |
| 1777944345 | 23.33° C | 56% | 1012.1 hPa | 0 mm | - | 60 W/m² | - |
| 1777944042 | 23.33° C | 54% | 1012.1 hPa | 0 mm | - | 65 W/m² | - |
| 1777943737 | 23.89° C | 53% | 1012.3 hPa | 0 mm | - | 201 W/m² | - |
| 1777943435 | 23.89° C | 52% | 1012.3 hPa | 0 mm | - | 206 W/m² | - |
| 1777943130 | 23.89° C | 52% | 1012.2 hPa | 0 mm | - | 272 W/m² | - |
| 1777942827 | 24.44° C | 51% | 1012.3 hPa | 0 mm | - | 277 W/m² | - |
| 1777942523 | 25° C | 51% | 1012.4 hPa | 0 mm | - | 304 W/m² | - |
| 1777942221 | 25° C | 51% | 1012.3 hPa | 0 mm | - | 284 W/m² | - |
| 1777941918 | 25° C | 50% | 1012.3 hPa | 0 mm | - | 298 W/m² | - |
| 1777941614 | 24.44° C | 51% | 1012.2 hPa | 0 mm | - | 333 W/m² | - |
* Rain latest hour (hover to see other rain measurements)
** Current wind speed in m/s (hover to see current wind gust speed)